• En España
  • Lista de países
  • Para 7 días
  • Temperatura del agua
  • Mapa Satelital
  • El tiempo en el mapa
  • Informadores
  • user-avatar
    Iniciar sesión

    Tiempo cada hora Naxçıvanlı

    Hoy, 18 Agosto, Viernes

    Tiempo Temperatura Precipitaciones Viento Presión Humedad
    00:00 +27°C° 0 mm 2 mps 686 mmHg 45%
    01:00 +27°C° 0 mm 2 mps 686 mmHg 46%
    02:00 +26°C° 0 mm 1 mps 686 mmHg 48%
    03:00 +26°C° 0 mm 1 mps 686 mmHg 53%
    04:00 +26°C° 0 mm 1 mps 686 mmHg 53%
    05:00 +26°C° 0 mm 1 mps 687 mmHg 52%
    06:00 +26°C° 0 mm 1 mps 687 mmHg 52%
    07:00 +27°C° 0 mm 1 mps 687 mmHg 47%
    08:00 +29°C° 0 mm 1 mps 687 mmHg 42%
    09:00 +30°C° 0 mm 1 mps 687 mmHg 36%
    10:00 +31°C° 0 mm 1 mps 687 mmHg 33%
    11:00 +33°C° 0 mm 1 mps 687 mmHg 29%
    12:00 +35°C° 0 mm 2 mps 687 mmHg 26%
    13:00 +36°C° 0 mm 2 mps 687 mmHg 24%
    14:00 +36°C° 0 mm 2 mps 687 mmHg 22%
    15:00 +36°C° 0 mm 3 mps 687 mmHg 22%
    16:00 +36°C° 0 mm 3 mps 687 mmHg 22%
    17:00 +35°C° 0 mm 3 mps 687 mmHg 23%
    18:00 +35°C° 0 mm 3 mps 687 mmHg 23%
    19:00 +34°C° 0 mm 3 mps 687 mmHg 27%
    20:00 +31°C° 0 mm 2 mps 687 mmHg 31%
    21:00 +30°C° 0 mm 2 mps 687 mmHg 35%
    22:00 +29°C° 0 mm 2 mps 688 mmHg 37%
    23:00 +29°C° 0 mm 2 mps 688 mmHg 40%

    Mañana, 19 Agosto, Sábado

    Tiempo Temperatura Precipitaciones Viento Presión Humedad
    00:00 +28°C° 0 mm 2 mps 688 mmHg 42%
    01:00 +28°C° 0 mm 2 mps 688 mmHg 43%
    02:00 +27°C° 0 mm 2 mps 688 mmHg 45%
    03:00 +26°C° 0 mm 2 mps 688 mmHg 46%
    04:00 +26°C° 0 mm 2 mps 688 mmHg 46%
    05:00 +26°C° 0 mm 1 mps 688 mmHg 47%
    06:00 +26°C° 0 mm 1 mps 688 mmHg 47%
    07:00 +28°C° 0 mm 1 mps 689 mmHg 42%
    08:00 +29°C° 0 mm 2 mps 689 mmHg 37%
    09:00 +31°C° 0 mm 2 mps 689 mmHg 32%
    10:00 +32°C° 0 mm 2 mps 689 mmHg 28%
    11:00 +35°C° 0 mm 2 mps 689 mmHg 25%
    12:00 +36°C° 0 mm 3 mps 689 mmHg 21%
    13:00 +37°C° 0 mm 3 mps 689 mmHg 20%
    14:00 +37°C° 0 mm 3 mps 688 mmHg 19%
    15:00 +38°C° 0 mm 4 mps 688 mmHg 17%
    16:00 +37°C° 0 mm 4 mps 688 mmHg 19%
    17:00 +37°C° 0 mm 5 mps 688 mmHg 21%
    18:00 +36°C° 0 mm 5 mps 688 mmHg 23%
    19:00 +34°C° 0 mm 4 mps 688 mmHg 26%
    20:00 +33°C° 0 mm 4 mps 688 mmHg 29%
    21:00 +30°C° 0 mm 3 mps 688 mmHg 33%
    22:00 +30°C° 0 mm 3 mps 689 mmHg 34%
    23:00 +29°C° 0 mm 3 mps 689 mmHg 35%

    Pasado mañana, 20 Agosto, Domingo

    Tiempo Temperatura Precipitaciones Viento Presión Humedad
    00:00 +28°C° 0 mm 2 mps 689 mmHg 37%
    01:00 +27°C° 0 mm 2 mps 689 mmHg 38%
    02:00 +27°C° 0 mm 2 mps 688 mmHg 39%
    03:00 +26°C° 0 mm 2 mps 688 mmHg 41%
    04:00 +26°C° 0 mm 2 mps 688 mmHg 41%
    05:00 +26°C° 0 mm 1 mps 689 mmHg 41%
    06:00 +26°C° 0 mm 1 mps 689 mmHg 41%
    07:00 +28°C° 0 mm 1 mps 689 mmHg 37%
    08:00 +29°C° 0 mm 1 mps 689 mmHg 32%
    09:00 +31°C° 0 mm 2 mps 689 mmHg 28%
    10:00 +34°C° 0 mm 2 mps 689 mmHg 25%
    11:00 +35°C° 0 mm 3 mps 689 mmHg 22%
    12:00 +36°C° 0 mm 3 mps 689 mmHg 19%
    13:00 +37°C° 0 mm 4 mps 689 mmHg 18%
    14:00 +38°C° 0 mm 4 mps 688 mmHg 17%
    15:00 +40°C° 0 mm 5 mps 688 mmHg 16%
    16:00 +39°C° 0 mm 5 mps 688 mmHg 17%
    17:00 +37°C° 0 mm 5 mps 688 mmHg 18%
    18:00 +36°C° 0 mm 6 mps 687 mmHg 20%
    19:00 +34°C° 0 mm 5 mps 688 mmHg 22%
    20:00 +33°C° 0 mm 4 mps 688 mmHg 25%
    21:00 +30°C° 0 mm 3 mps 688 mmHg 28%
    22:00 +29°C° 0 mm 3 mps 688 mmHg 29%
    23:00 +29°C° 0 mm 2 mps 688 mmHg 30%

    21 Agosto, Lunes

    Tiempo Temperatura Precipitaciones Viento Presión Humedad
    00:00 +28°C° 0 mm 2 mps 688 mmHg 31%
    01:00 +27°C° 0 mm 2 mps 688 mmHg 32%
    02:00 +27°C° 0 mm 2 mps 688 mmHg 34%
    03:00 +26°C° 0 mm 1 mps 687 mmHg 35%
    04:00 +26°C° 0 mm 1 mps 688 mmHg 35%
    05:00 +26°C° 0 mm 1 mps 688 mmHg 35%
    06:00 +26°C° 0 mm 1 mps 688 mmHg 35%
    07:00 +28°C° 0 mm 1 mps 688 mmHg 31%
    08:00 +30°C° 0 mm 1 mps 688 mmHg 27%
    09:00 +31°C° 0 mm 1 mps 688 mmHg 23%
    10:00 +33°C° 0 mm 1 mps 688 mmHg 20%
    11:00 +35°C° 0 mm 2 mps 688 mmHg 18%
    12:00 +37°C° 0 mm 2 mps 687 mmHg 16%
    13:00 +37°C° 0 mm 2 mps 687 mmHg 15%
    14:00 +38°C° 0 mm 3 mps 687 mmHg 15%
    15:00 +39°C° 0 mm 3 mps 686 mmHg 14%
    16:00 +38°C° 0 mm 3 mps 686 mmHg 15%
    17:00 +38°C° 0 mm 3 mps 686 mmHg 16%
    18:00 +37°C° 0 mm 4 mps 686 mmHg 17%
    19:00 +35°C° 0 mm 3 mps 686 mmHg 22%
    20:00 +34°C° 0 mm 3 mps 687 mmHg 26%
    21:00 +31°C° 0 mm 2 mps 687 mmHg 31%
    22:00 +30°C° 0 mm 2 mps 687 mmHg 33%
    23:00 +29°C° 0 mm 2 mps 687 mmHg 35%

    22 Agosto, Martes

    Tiempo Temperatura Precipitaciones Viento Presión Humedad
    00:00 +29°C° 0 mm 2 mps 687 mmHg 38%
    01:00 +28°C° 0 mm 2 mps 686 mmHg 38%
    02:00 +28°C° 0 mm 1 mps 686 mmHg 39%
    03:00 +27°C° 0 mm 1 mps 686 mmHg 40%
    04:00 +27°C° 0 mm 1 mps 686 mmHg 40%
    05:00 +27°C° 0 mm 1 mps 686 mmHg 39%
    06:00 +27°C° 0 mm 1 mps 686 mmHg 39%
    07:00 +29°C° 0 mm 1 mps 687 mmHg 34%
    08:00 +31°C° 0 mm 1 mps 687 mmHg 30%
    09:00 +33°C° 0 mm 1 mps 687 mmHg 25%
    10:00 +34°C° 0 mm 1 mps 687 mmHg 22%
    11:00 +36°C° 0 mm 2 mps 687 mmHg 19%
    12:00 +38°C° 0 mm 2 mps 686 mmHg 16%
    13:00 +39°C° 0 mm 2 mps 686 mmHg 15%
    14:00 +39°C° 0 mm 3 mps 686 mmHg 14%
    15:00 +40°C° 0 mm 3 mps 685 mmHg 13%
    16:00 +39°C° 0 mm 3 mps 685 mmHg 14%
    17:00 +39°C° 0 mm 3 mps 685 mmHg 15%
    18:00 +38°C° 0 mm 4 mps 685 mmHg 16%
    19:00 +36°C° 0 mm 3 mps 685 mmHg 20%
    20:00 +35°C° 0 mm 3 mps 685 mmHg 24%
    21:00 +32°C° 0 mm 2 mps 686 mmHg 28%
    22:00 +31°C° 0 mm 2 mps 686 mmHg 30%
    23:00 +30°C° 0 mm 2 mps 686 mmHg 33%

    23 Agosto, Miércoles

    Tiempo Temperatura Precipitaciones Viento Presión Humedad
    00:00 +30°C° 0 mm 2 mps 686 mmHg 35%
    01:00 +29°C° 0 mm 2 mps 686 mmHg 35%
    02:00 +28°C° 0 mm 2 mps 686 mmHg 36%
    03:00 +28°C° 0 mm 2 mps 685 mmHg 37%
    04:00 +28°C° 0 mm 2 mps 686 mmHg 37%
    05:00 +28°C° 0 mm 2 mps 686 mmHg 36%
    06:00 +28°C° 0 mm 1 mps 686 mmHg 36%
    07:00 +30°C° 0 mm 1 mps 687 mmHg 32%
    08:00 +32°C° 0 mm 2 mps 687 mmHg 27%
    09:00 +35°C° 0 mm 2 mps 687 mmHg 23%
    10:00 +36°C° 0 mm 2 mps 687 mmHg 21%
    11:00 +38°C° 0 mm 3 mps 687 mmHg 19%
    12:00 +39°C° 0 mm 3 mps 687 mmHg 16%
    13:00 +41°C° 0 mm 4 mps 687 mmHg 15%
    14:00 +42°C° 0 mm 4 mps 686 mmHg 15%
    15:00 +42°C° 0 mm 5 mps 686 mmHg 14%
    16:00 +41°C° 0 mm 5 mps 686 mmHg 16%
    17:00 +41°C° 0 mm 5 mps 686 mmHg 17%
    18:00 +40°C° 0 mm 5 mps 686 mmHg 19%
    19:00 +37°C° 0 mm 4 mps 686 mmHg 23%
    20:00 +35°C° 0 mm 4 mps 687 mmHg 26%
    21:00 +33°C° 0 mm 3 mps 687 mmHg 30%
    22:00 +31°C° 0 mm 3 mps 687 mmHg 30%
    23:00 +31°C° 0 mm 2 mps 687 mmHg 31%
    Mostrar más